Location: Clarion
(42.7316°N, 93.7330°W)
Time: 09:25:26
(UTC+00:00)

CZ-4B R/B - Pass Details

Date: 22 April 2026
Orbit: 699 x 798 km, 98.9° (Epoch: 17 May)

Event Time Altitude Azimuth Distance (km) Brightness Sun altitude
Exits shadow 04:17:00 45° 273° (W) 959 4.1 -28.9°
Drops below altitude 10° 04:21:15 10° 334° (NNW) 2,177 6.8 -29.4°
Sets 04:23:35 0° 340° (NNW) 3,096 7.8 -29.6°
